Location: Unspecified
(0.0000°N, 0.0000°E)
Time: 09:41:14
(UTC+00:00)

Vanguard 2 - Pass Details

Date: 29 October 2021
Orbit: 554 x 2936 km, 32.9° (Epoch: 06 December)

Event Time Altitude Azimuth Distance (km) Brightness Sun altitude
Rises 09:34:29 0° 276° (W) 2,768 10.1 55.2°
Reaches altitude 10° 09:37:19 10° 255° (WSW) 1,820 9.3 55.9°
Maximum altitude 09:40:03 18° 211° (SSW) 1,424 9.1 56.5°
Drops below altitude 10° 09:42:58 10° 167° (SSE) 1,963 10.1 57.2°
Sets 09:46:12 0° 147° (SSE) 3,088 11.0 57.9°
